TimeCEST,TemperatureF,Dew PointF,Humidity,Sea Level PressureIn,VisibilityMPH,Wind Direction,Wind SpeedMPH,Gust SpeedMPH,PrecipitationIn,Events,Conditions,WindDirDegrees,DateUTC
12:00 AM,55.4,48.2,77,30.12,-9999.0,Calm,Calm,-,N/A,,Clear,0,2013-04-18 22:00:00
12:30 AM,55.4,48.2,77,30.12,-9999.0,NE,1.2,-,N/A,,Clear,40,2013-04-18 22:30:00
1:00 AM,53.6,48.2,82,30.12,-9999.0,ENE,1.2,-,N/A,,Clear,60,2013-04-18 23:00:00
1:30 AM,51.8,46.4,82,30.12,-9999.0,Calm,Calm,-,N/A,,Clear,0,2013-04-18 23:30:00
2:00 AM,51,45,73,30.14,9,Calm,Calm,,,,,,2013-04-19 00:00:00
2:00 AM,51.8,46.4,82,30.12,-9999.0,Variable,1.2,-,N/A,,Clear,0,2013-04-19 00:00:00
2:30 AM,51.8,46.4,82,30.12,-9999.0,Variable,1.2,-,N/A,,Clear,0,2013-04-19 00:30:00
3:00 AM,50.0,46.4,87,30.12,-9999.0,NE,1.2,-,N/A,,Clear,40,2013-04-19 01:00:00
3:30 AM,50.0,46.4,87,30.12,-9999.0,Calm,Calm,-,N/A,,Clear,0,2013-04-19 01:30:00
4:00 AM,51.8,46.4,82,30.09,-9999.0,East,1.2,-,N/A,,Clear,90,2013-04-19 02:00:00
4:30 AM,50.0,46.4,87,30.09,-9999.0,Calm,Calm,-,N/A,,Clear,0,2013-04-19 02:30:00
5:00 AM,50.0,46.4,87,30.09,-9999.0,North,1.2,-,N/A,,Clear,360,2013-04-19 03:00:00
5:30 AM,50.0,46.4,87,30.09,-9999.0,Variable,1.2,-,N/A,,Clear,0,2013-04-19 03:30:00
6:00 AM,50.0,46.4,87,30.09,-9999.0,NNE,5.8,-,N/A,,Clear,30,2013-04-19 04:00:00
6:19 AM,51.8,50.0,94,30.09,1.2,NE,9.2,-,N/A,,Scattered Clouds,50,2013-04-19 04:19:00
6:30 AM,53.6,51.8,94,30.09,0.4,ENE,9.2,-,N/A,Fog,Patches of Fog,60,2013-04-19 04:30:00
6:41 AM,55.4,53.6,94,30.09,3.1,NE,10.4,-,N/A,,Scattered Clouds,50,2013-04-19 04:41:00
7:00 AM,55.4,53.6,94,30.09,3.1,ENE,8.1,-,N/A,,Partly Cloudy,60,2013-04-19 05:00:00
7:15 AM,55.4,53.6,94,30.09,0.3,ENE,9.2,-,N/A,Fog,Patches of Fog,70,2013-04-19 05:15:00
7:30 AM,55.4,55.4,100,30.09,0.3,ENE,5.8,-,N/A,Fog,Patches of Fog,70,2013-04-19 05:30:00
8:00 AM,57,54,88,30.12,3,ENE,5.8,,,,Mist,70,2013-04-19 06:00:00
8:00 AM,57.2,55.4,94,30.09,6.2,NE,8.1,-,N/A,Fog,Partly Cloudy,50,2013-04-19 06:00:00
8:30 AM,57.2,57.2,100,30.09,6.2,NE,8.1,-,N/A,,Partly Cloudy,40,2013-04-19 06:30:00
9:00 AM,59.0,57.2,94,30.12,6.2,ENE,4.6,-,N/A,,Partly Cloudy,60,2013-04-19 07:00:00
9:30 AM,62.6,59.0,88,30.12,-9999.0,ENE,5.8,-,N/A,,Clear,60,2013-04-19 07:30:00
10:00 AM,66.2,55.4,68,30.12,-9999.0,East,6.9,-,N/A,,Clear,80,2013-04-19 08:00:00
10:30 AM,68.0,53.6,60,30.12,6.2,East,8.1,-,N/A,,Partly Cloudy,80,2013-04-19 08:30:00
11:00 AM,69.8,53.6,56,30.12,6.2,NE,8.1,-,N/A,,Partly Cloudy,50,2013-04-19 09:00:00
11:30 AM,71.6,53.6,53,30.12,6.2,ENE,9.2,-,N/A,,Partly Cloudy,60,2013-04-19 09:30:00
12:00 PM,71.6,53.6,53,30.12,6.2,NE,11.5,-,N/A,,Partly Cloudy,50,2013-04-19 10:00:00
12:30 PM,73.4,51.8,47,30.12,6.2,NE,12.7,-,N/A,,Partly Cloudy,50,2013-04-19 10:30:00
1:00 PM,73.4,53.6,50,30.09,6.2,ENE,13.8,-,N/A,,Partly Cloudy,60,2013-04-19 11:00:00
1:30 PM,71.6,53.6,53,30.09,6.2,ENE,16.1,-,N/A,,Partly Cloudy,60,2013-04-19 11:30:00
2:00 PM,73,50,33,30.11,19,ENE,19.6,,,,Partly Cloudy,70,2013-04-19 12:00:00
2:00 PM,71.6,51.8,50,30.09,6.2,ENE,17.3,-,N/A,,Partly Cloudy,60,2013-04-19 12:00:00
2:30 PM,71.6,50.0,46,30.09,6.2,ENE,20.7,-,N/A,,Partly Cloudy,60,2013-04-19 12:30:00
3:00 PM,69.8,50.0,49,30.09,6.2,ENE,19.6,-,N/A,,Scattered Clouds,70,2013-04-19 13:00:00
3:30 PM,68.0,48.2,49,30.09,6.2,ENE,20.7,-,N/A,,Scattered Clouds,60,2013-04-19 13:30:00
4:00 PM,68.0,50.0,52,30.09,6.2,ENE,20.7,-,N/A,,Scattered Clouds,60,2013-04-19 14:00:00
4:30 PM,68.0,50.0,52,30.09,6.2,ENE,23.0,-,N/A,,Scattered Clouds,60,2013-04-19 14:30:00
5:00 PM,66.2,50.0,56,30.09,6.2,ENE,19.6,32.2,N/A,,Scattered Clouds,60,2013-04-19 15:00:00
5:30 PM,66.2,50.0,56,30.12,6.2,NE,21.9,-,N/A,,Scattered Clouds,50,2013-04-19 15:30:00
6:00 PM,64.4,48.2,56,30.12,6.2,ENE,19.6,-,N/A,,Scattered Clouds,60,2013-04-19 16:00:00
6:30 PM,64.4,50.0,59,30.12,6.2,ENE,18.4,-,N/A,,Mostly Cloudy,70,2013-04-19 16:30:00
7:00 PM,62.6,50.0,63,30.12,6.2,ENE,19.6,-,N/A,,Scattered Clouds,60,2013-04-19 17:00:00
7:30 PM,60.8,50.0,68,30.12,6.2,ENE,15.0,-,N/A,,Scattered Clouds,60,2013-04-19 17:30:00
8:00 PM,61,47,49,30.14,19,ENE,21.9,,,,Partly Cloudy,70,2013-04-19 18:00:00
8:00 PM,60.8,50.0,68,30.12,6.2,ENE,17.3,-,N/A,,Scattered Clouds,70,2013-04-19 18:00:00
8:30 PM,59.0,48.2,67,30.15,6.2,ENE,18.4,-,N/A,,Scattered Clouds,60,2013-04-19 18:30:00
9:00 PM,59.0,48.2,67,30.15,6.2,ENE,16.1,-,N/A,,Scattered Clouds,60,2013-04-19 19:00:00
9:30 PM,59.0,48.2,67,30.15,6.2,ENE,17.3,-,N/A,,Scattered Clouds,60,2013-04-19 19:30:00
10:00 PM,59.0,48.2,67,30.18,6.2,ENE,18.4,-,N/A,,Mostly Cloudy,60,2013-04-19 20:00:00
10:30 PM,59.0,48.2,67,30.18,6.2,ENE,16.1,-,N/A,,Mostly Cloudy,60,2013-04-19 20:30:00
11:00 PM,57.2,48.2,72,30.18,6.2,ENE,17.3,-,N/A,,Mostly Cloudy,60,2013-04-19 21:00:00
11:30 PM,57.2,48.2,72,30.21,6.2,ENE,17.3,-,N/A,,Mostly Cloudy,60,2013-04-19 21:30:00